Location: *
(43.9900°N, 3.4811°E)
Time: 13:49:02
(UTC+00:00)

Cosmos 1697 Rocket - Pass Details

Date: 25 August 2019
Orbit: 831 x 845 km, 71.0° (Epoch: 20 September)

Event Time Altitude Azimuth Distance (km) Brightness Sun altitude
Rises 19:32:07 0° 340° (NNW) 3,414 6.6 -10.5°
Reaches altitude 10° 19:34:48 10° 349° (N) 2,476 5.7 -10.9°
Maximum altitude 19:40:00 36° 55° (NE) 1,327 3.5 -11.7°
Enters shadow 19:43:48 17° 113° (ESE) 2,026 4.0 -12.3°
